Regional Weather Roundup
Issued by NWS Boston, MA

Current Version | Previous Version | Text Only | Print | Product List | Glossary Off
Versions: 1 2 3 4 5 6 7 8 9 10 11 12 13 14 15 16 17 18 19 20 21 22 23 24 25 26 27
000 ASUS41 KBOX 231010 RWRBOX REGIONAL WEATHER ROUNDUP NATIONAL WEATHER SERVICE BOSTON/NORTON MA 600 AM EDT MON APR 23 2018 NOTE: "FAIR" INDICATES FEW OR NO CLOUDS BELOW 12,000 FEET WITH NO SIGNIFICANT WEATHER AND/OR OBSTRUCTIONS TO VISIBILITY. MAZALL-231100- EASTERN MASSACHUSETTS CITY SKY/WX TMP DP RH WIND PRES REMARKS BOSTON FAIR 44 20 38 NW6 30.46R BEVERLY FAIR 31 24 75 CALM 30.45R LAWRENCE FAIR 36 23 59 CALM 30.47R BEDFORD FAIR 29 24 82 CALM 30.45R BLUE HILL N/A 41 17 38 N8 30.43R NORWOOD FAIR 32 30 92 CALM 30.46R MARSHFIELD FAIR 41 25 52 VRB5 30.44R PLYMOUTH FAIR 31 27 85 CALM 30.45R TAUNTON FAIR 28 25 88 CALM 30.45R NEW BEDFORD N/A 31 26 82 CALM 30.44R $$ MAZALL-231100- CAPE COD AND THE ISLANDS CITY SKY/WX TMP DP RH WIND PRES REMARKS FALMOUTH FAIR 39 27 60 N6 30.45 HYANNIS FAIR 42 35 76 N7 30.42R CHATHAM FAIR 39 35 86 N5 30.43R PROVINCETOWN FAIR 42 36 79 N6 30.44R NANTUCKET FAIR 35 35 100 CALM 30.42R MARTHAS VNYRD FAIR 38 30 73 N8 30.43R $$ MAZALL-231100- CENTRAL AND WESTERN MASSACHUSETTS CITY SKY/WX TMP DP RH WIND PRES REMARKS WORCESTER FAIR 41 18 39 CALM 30.44R FITCHBURG FAIR 32 25 75 CALM 30.47R ORANGE FAIR 24 22 91 CALM 30.48R SPRINGFIELD FAIR 27 25 92 CALM 30.46R WESTFIELD FAIR 28 25 88 CALM 30.47R NORTH ADAMS FAIR 25 21 85 CALM 30.48R PITTSFIELD FAIR 27 21 78 CALM 30.44R $$ RIZALL-231100- RHODE ISLAND CITY SKY/WX TMP DP RH WIND PRES REMARKS PROVIDENCE FAIR 38 26 62 W3 30.46R NEWPORT FAIR 39 29 67 N6 30.45R BLOCK ISLAND FAIR 43 29 57 N7 30.46R SMITHFIELD FAIR 39 16 39 MISG 30.45R WESTERLY FAIR 32 29 88 NE3 30.46R $$ CTZALL-231100- CONNECTICUT CITY SKY/WX TMP DP RH WIND PRES REMARKS BRADLEY INTL FAIR 31 25 78 CALM 30.46R HARTFORD FAIR 34 27 75 CALM 30.47R BRIDGEPORT FAIR 40 28 62 N5 30.45R DANBURY FAIR 30 25 81 CALM 30.46R GROTON FAIR 35 27 72 N6 30.45R WCI 30 NEW HAVEN FAIR 35 28 75 CALM 30.46R CHESTER FAIR 43 16 33 N5 30.45R MERIDEN FAIR 34 27 75 NW3 30.47R WILLIMANTIC FAIR 30 25 81 NE3 30.47R OXFORD FAIR 43 17 35 NE8 30.45R $$ MEZ002-015-021-024-NHZ003-005-008-011-012-014-VTZ005-008-231100- NORTHERN NEW ENGLAND CITY SKY/WX TMP DP RH WIND PRES REMARKS PORTLAND ME FAIR 34 23 64 W6 30.44R WCI 29 BANGOR ME FAIR 27 20 75 CALM 30.42R CONCORD NH FAIR 27 21 78 CALM 30.46R MANCHESTER NH FAIR 34 23 64 CALM 30.45R NASHUA NH FAIR 29 25 85 NW3 30.47R PORTSMOUTH NH CLEAR 34 26 71 CALM 30.44R JAFFREY NH FAIR 25 23 92 CALM 30.45R KEENE NH FAIR 23 21 92 CALM 30.49R BURLINGTON VT FAIR 31 24 75 CALM 30.45R MT. WASHINGTON CLEAR 21 7 53 NW16 N/A WCI 7 $$ NYZ052-076-231100- EASTERN NEW YORK CITY SKY/WX TMP DP RH WIND PRES REMARKS ALBANY FAIR 31 23 72 CALM 30.47R NEW YORK CITY FAIR 45 39 79 E3 30.44R $$ ANZALL-231100- MARINE OBSERVATIONS STATION/POSITION TIME TEMP WIND PRES VSBY WAVE AIR SEA DIR/SP/G HT/PER (UTC) (F) (DEG/KT/KT) (MB) (MI) (FT/S) BOSTON BUOY 0950 43 44 330/ 8/ 8 1029.7R 1 BUZZARDS BAY NOT AVBL NANTUCKET SOUND 0850 44 44 320/ 8/ 8 1029.5 0 MASS BAY-STELLWA 0904 44 43 1028.9R 1 ISLE OF SHOALS NOT AVBL S OF BLOCK IS 0943 42 N/A 2/15 $$ ......................KEY......................... SKY/WX - SKY CONDITION/PRESENT WEATHER TMP - TEMPERATURE IN FAHRENHEIT DWPT - DEWPOINT IN FAHRENHEIT RH - RELATIVE HUMIDITY IN PERCENT WIND - DIRECTION AND SPEED IN MPH PRES - MEAN SEA LEVEL PRESSURE IN INCHES OF HG WCI - WIND CHILL INDEX VSB - VISIBILITY IN MILES HX - HEAT INDEX TC - TEMPERATURE IN CELSIUS VRB - VARIABLE WIND DIRECTION N/A - NOT AVAILABLE

USA.gov is the U.S. government's official web portal to all federal, state and local government web resources and services.